KC1KAD Weather Reports


time (UTC)temp
C
wind
direction
speed
KPH
gust
KPH
rain 1hr
cm
rain 24hr
cm
rain mn
cm
humidity
%
barometer
mb
20260509002818 14 197 3.2 6.4 0.00 0.00 0.00 77 1014.5
20260509002101 14 203 4.8 8.0 0.00 0.00 0.00 76 1014.6
20260509001601 14 185 4.8 8.0 0.00 0.00 0.00 73 1014.5
20260509000600 14 195 4.8 8.0 0.00 0.00 0.00 72 1014.6
20260509000100 15 192 4.8 6.4 0.00 0.00 0.00 72 1014.5
20260508235601 15 199 4.8 6.4 0.00 0.00 0.00 72 1014.3
20260508235101 15 197 4.8 6.4 0.00 0.00 0.00 72 1014.3
20260508234601 15 199 3.2 6.4 0.00 0.00 0.00 72 1014.3
20260508234101 15 199 3.2 6.4 0.00 0.00 0.00 73 1014.2
20260508233601 15 191 3.2 4.8 0.00 0.00 0.00 71 1014.2
20260508233100 15 206 3.2 6.4 0.00 0.00 0.00 71 1014.1
20260508232826 15 206 3.2 6.4 0.00 0.00 0.00 69 1014.2
20260508231601 15 219 3.2 6.4 0.00 0.00 0.00 68 1014.1
20260508231101 15 200 4.8 6.4 0.00 0.00 0.00 68 1014.2
20260508230601 15 189 4.8 8.0 0.00 0.00 0.00 70 1014.2
20260508230101 15 186 4.8 8.0 0.00 0.00 0.00 70 1014.3
20260508225600 16 194 3.2 6.4 0.00 0.00 0.00 69 1014.2
20260508225320 16 195 3.2 6.4 0.00 0.00 0.00 67 1014.2
20260508224600 16 200 3.2 6.4 0.00 0.00 0.00 66 1014.1
20260508224101 16 192 3.2 6.4 0.00 0.00 0.00 67 1014.0
20260508223601 16 179 3.2 6.4 0.00 0.00 0.00 66 1014.2
20260508222601 16 220 3.2 6.4 0.00 0.00 0.00 67 1014.0
20260508222323 16 181 3.2 6.4 0.00 0.00 0.00 68 1014.2
20260508221819 16 187 3.2 6.4 0.00 0.00 0.00 67 1014.1
20260508221102 16 200 3.2 6.4 0.00 0.00 0.00 66 1014.1
20260508220602 16 198 3.2 6.4 0.00 0.00 0.00 70 1014.0
20260508215601 16 201 3.2 6.4 0.00 0.00 0.00 66 1014.1
20260508215101 16 187 4.8 6.4 0.00 0.00 0.00 66 1014.0
20260508214821 16 178 4.8 6.4 0.00 0.00 0.00 66 1014.0
20260508214101 16 191 4.8 8.0 0.00 0.00 0.00 64 1014.0
20260508213601 16 194 4.8 8.0 0.00 0.00 0.00 63 1013.8
20260508213100 16 184 4.8 9.7 0.00 0.00 0.00 63 1013.9
20260508212600 17 177 4.8 9.7 0.00 0.00 0.00 63 1013.9
20260508212322 17 259 4.8 8.0 0.00 0.00 0.00 62 1014.1
20260508211824 17 195 4.8 9.7 0.00 0.00 0.00 64 1014.2
20260508211101 17 185 4.8 9.7 0.00 0.00 0.00 62 1014.0
20260508210823 17 195 4.8 9.7 0.00 0.00 0.00 63 1014.2
20260508205819 17 198 4.8 9.7 0.00 0.00 0.00 63 1013.9
20260508205100 17 196 4.8 9.7 0.00 0.00 0.00 62 1014.0
20260508204818 17 194 4.8 9.7 0.00 0.00 0.00 62 1013.8
20260508203601 17 192 6.4 11.3 0.00 0.00 0.00 60 1013.9
20260508202601 17 190 6.4 8.0 0.00 0.00 0.00 62 1014.0
20260508202101 17 190 6.4 9.7 0.00 0.00 0.00 61 1014.0
20260508201601 17 165 6.4 9.7 0.00 0.00 0.00 60 1014.0
20260508201100 17 187 6.4 9.7 0.00 0.00 0.00 61 1014.1
20260508200601 17 183 6.4 11.3 0.00 0.00 0.00 58 1014.2
20260508200100 17 185 6.4 11.3 0.00 0.00 0.00 57 1014.2
20260508195600 17 183 4.8 9.7 0.00 0.00 0.00 59 1014.2
20260508195100 18 188 4.8 12.9 0.00 0.00 0.00 59 1014.2
20260508194826 18 117 3.2 12.9 0.00 0.00 0.00 61 1014.2
20260508194100 18 185 3.2 8.0 0.00 0.00 0.00 57 1014.1
20260508193601 18 129 4.8 9.7 0.00 0.00 0.00 56 1014.2
20260508193101 18 171 6.4 11.3 0.00 0.00 0.00 57 1014.5
20260508192601 18 187 6.4 11.3 0.00 0.00 0.00 56 1014.6
20260508192101 18 179 4.8 9.7 0.00 0.00 0.00 56 1014.9
20260508191601 18 196 4.8 9.7 0.00 0.00 0.00 56 1015.1
20260508190601 18 211 4.8 9.7 0.00 0.00 0.00 56 1015.3
20260508190319 18 127 4.8 9.7 0.00 0.00 0.00 57 1015.5
20260508185600 18 185 6.4 9.7 0.00 0.00 0.00 55 1016.0
20260508185317 18 217 6.4 12.9 0.00 0.00 0.00 55 1015.8
20260508184603 18 151 4.8 12.9 0.00 0.00 0.00 54 1015.8
20260508184103 18 181 4.8 9.7 0.00 0.00 0.00 56 1015.8
20260508183603 18 69 4.8 9.7 0.00 0.00 0.00 55 1015.6
20260508183103 18 133 6.4 9.7 0.00 0.00 0.00 55 1015.4
20260508182603 18 197 6.4 11.3 0.00 0.00 0.00 57 1015.8
20260508182326 18 182 6.4 11.3 0.00 0.00 0.00 56 1016.0
20260508181829 18 179 6.4 9.7 0.00 0.00 0.00 56 1016.4
20260508181102 17 184 6.4 9.7 0.00 0.00 0.00 58 1016.0
20260508175602 17 183 6.4 9.7 0.00 0.00 0.00 58 1015.8
20260508175103 17 210 4.8 8.0 0.00 0.00 0.00 57 1015.8
20260508174603 17 173 6.4 9.7 0.00 0.00 0.00 59 1016.0
20260508174103 17 195 6.4 9.7 0.00 0.00 0.00 58 1016.0
20260508173602 17 187 6.4 9.7 0.00 0.00 0.00 58 1015.7
20260508173328 17 192 4.8 8.0 0.00 0.00 0.00 58 1016.2
20260508172602 17 189 4.8 8.0 0.00 0.00 0.00 56 1016.7
20260508172102 17 191 4.8 6.4 0.00 0.00 0.00 56 1017.0
20260508171602 17 188 4.8 6.4 0.00 0.00 0.00 57 1016.9
20260508171102 17 191 4.8 6.4 0.00 0.00 0.00 56 1017.1
20260508170602 17 188 4.8 6.4 0.00 0.00 0.00 60 1016.7
20260508165602 16 190 4.8 9.7 0.00 0.00 0.00 57 1016.8
20260508165101 16 122 4.8 14.5 0.00 0.00 0.00 58 1016.9
20260508164603 16 154 4.8 14.5 0.00 0.00 0.00 58 1016.8
20260508164102 16 160 4.8 25.7 0.00 0.00 0.00 57 1016.8
20260508163602 16 149 11.3 25.7 0.00 0.00 0.00 58 1017.0
20260508163102 16 53 17.7 25.7 0.00 0.00 0.00 59 1017.2
20260508162827 16 62 17.7 25.7 0.00 0.00 0.00 60 1017.1
20260508162102 16 64 17.7 25.7 0.00 0.00 0.00 60 1017.2
20260508161102 16 55 17.7 25.7 0.00 0.00 0.00 60 1017.6
20260508160602 16 68 16.1 25.7 0.00 0.00 0.00 61 1017.5
20260508155602 16 48 9.7 17.7 0.00 0.00 0.00 61 1017.6
20260508155102 16 70 8.0 17.7 0.00 0.00 0.00 62 1017.5
20260508154102 15 121 6.4 11.3 0.00 0.00 0.00 63 1017.6
20260508153602 15 125 6.4 11.3 0.00 0.00 0.00 65 1017.8
20260508152819 15 190 6.4 12.9 0.00 0.00 0.00 64 1017.7
20260508152101 15 176 6.4 12.9 0.00 0.00 0.00 67 1017.8
20260508151602 15 179 6.4 12.9 0.00 0.00 0.00 69 1017.9
20260508151102 15 221 4.8 6.4 0.00 0.00 0.00 71 1017.8
20260508150602 15 179 4.8 6.4 0.00 0.00 0.00 68 1017.8
20260508150321 14 149 4.8 6.4 0.00 0.00 0.00 71 1017.9
20260508145601 14 181 4.8 6.4 0.00 0.00 0.00 74 1017.8
20260508145101 14 211 4.8 6.4 0.00 0.00 0.00 69 1017.8
20260508144102 13 181 1.6 4.8 0.00 0.00 0.00 79 1017.9
20260508143603 13 171 1.6 3.2 0.00 0.00 0.00 80 1017.9
20260508143103 12 180 1.6 3.2 0.00 0.00 0.00 82 1018.0
20260508142603 12 187 1.6 4.8 0.00 0.00 0.00 83 1018.1
20260508142102 12 158 3.2 4.8 0.00 0.00 0.00 84 1018.1
20260508135603 9 57 0.0 1.6 0.00 0.00 0.00 92 1018.3
20260508135102 9 165 1.6 3.2 0.00 0.00 0.00 94 1018.3
20260508134818 9 158 1.6 4.8 0.00 0.00 0.00 98 1018.3
20260508134103 8 152 1.6 4.8 0.00 0.00 0.00 99 1018.4
20260508133602 8 206 1.6 3.2 0.00 0.00 0.00 99 1018.4
20260508133102 8 173 1.6 3.2 0.00 0.00 0.00 99 1018.5
20260508132602 8 259 1.6 3.2 0.00 0.00 0.00 100 1018.5
20260508132102 8 182 0.0 3.2 0.00 0.00 0.00 100 1018.6
20260508131602 7 0 1.6 1.6 0.00 0.00 0.00 100 1018.6
20260508131323 7 307 1.6 3.2 0.00 0.00 0.00 100 1018.5
20260508130602 7 208 1.6 3.2 0.00 0.00 0.00 100 1018.5
20260508125602 7 265 0.0 1.6 0.00 0.03 0.00 99 1018.4
20260508125102 6 30 0.0 1.6 0.00 0.05 0.00 99 1018.3
20260508124602 6 288 0.0 3.2 0.00 0.08 0.00 99 1018.2
20260508124324 6 147 0.0 3.2 0.00 0.13 0.00 99 1018.2
20260508123602 6 218 0.0 1.6 0.00 0.13 0.00 99 1018.2
20260508122827 6 52 1.6 1.6 0.00 0.15 0.00 99 1018.1
20260508122322 6 214 1.6 3.2 0.00 0.15 0.00 99 1018.1
20260508121601 6 187 0.0 3.2 0.00 0.18 0.00 99 1017.9
20260508121102 6 166 0.0 1.6 0.00 0.25 0.00 99 1017.8
20260508120602 6 0 0.0 1.6 0.00 0.38 0.00 99 1017.7
20260508115822 5 0 0.0 3.2 0.00 0.46 0.00 99 1017.5
20260508115102 5 0 1.6 3.2 0.00 0.48 0.00 99 1017.5
20260508114601 5 257 1.6 3.2 0.00 0.51 0.00 99 1017.4
20260508114101 5 236 0.0 3.2 0.00 0.56 0.00 98 1017.4
20260508113601 5 270 0.0 1.6 0.00 0.66 0.00 98 1017.2
20260508113101 5 229 1.6 3.2 0.00 0.74 0.00 98 1017.2
20260508112602 5 221 1.6 3.2 0.00 0.76 0.00 98 1017.1
20260508112102 5 214 0.0 3.2 0.00 0.76 0.00 98 1017.0
20260508111602 5 0 0.0 1.6 0.00 0.79 0.00 98 1016.9
20260508111102 6 0 0.0 1.6 0.00 0.84 0.00 98 1016.8
20260508110602 6 254 0.0 1.6 0.00 0.86 0.00 98 1016.8
20260508105826 6 249 1.6 3.2 0.00 1.07 0.00 98 1016.5
20260508105103 6 355 1.6 3.2 0.00 1.17 0.00 98 1016.4
20260508104602 6 313 1.6 3.2 0.00 1.22 0.00 98 1016.3
20260508104319 6 258 1.6 3.2 0.00 1.27 0.00 98 1016.3
20260508103602 6 0 1.6 3.2 0.00 1.32 0.00 97 1016.2
20260508103102 6 260 1.6 3.2 0.00 1.35 0.00 97 1016.1
20260508102602 6 310 1.6 1.6 0.00 1.35 0.00 97 1016.1
20260508102326 6 294 1.6 1.6 0.00 1.35 0.00 97 1016.1
20260508101602 6 258 1.6 1.6 0.00 1.35 0.00 97 1016.0
20260508101103 6 287 1.6 1.6 0.00 1.45 0.00 96 1016.0
20260508100603 6 273 0.0 1.6 0.00 1.50 0.00 96 1016.0
20260508095824 7 0 0.0 1.6 0.00 1.68 0.00 97 1015.7
20260508095330 7 281 0.0 1.6 0.00 1.68 0.00 96 1015.7
20260508094602 7 0 1.6 1.6 0.00 1.68 0.00 96 1015.7
20260508094103 7 267 1.6 1.6 0.00 1.68 0.00 96 1015.6
20260508093602 7 278 0.0 1.6 0.00 1.68 0.00 96 1015.5
20260508093103 7 27 0.0 1.6 0.00 1.68 0.00 96 1015.4
20260508092828 7 274 0.0 1.6 0.00 1.68 0.00 96 1015.3
20260508092102 7 0 0.0 1.6 0.00 1.70 0.00 96 1015.3
20260508090603 7 342 1.6 3.2 0.00 1.70 0.00 96 1015.3
20260508085820 7 357 1.6 3.2 0.00 1.73 0.00 96 1015.4
20260508085102 8 291 1.6 3.2 0.00 1.73 0.00 95 1015.5
20260508084602 8 312 1.6 3.2 0.00 1.73 0.00 95 1015.4
20260508084102 8 357 1.6 3.2 0.00 1.73 0.00 96 1015.3
20260508083602 8 280 1.6 3.2 0.00 1.73 0.00 96 1015.3
20260508083103 8 280 1.6 3.2 0.00 1.73 0.00 96 1015.3
20260508082823 8 313 1.6 3.2 0.00 1.75 0.00 96 1015.3
20260508082102 8 0 0.0 1.6 0.00 1.75 0.00 96 1015.4
20260508081826 7 356 1.6 1.6 0.00 1.75 0.00 96 1015.4
20260508081102 7 20 0.0 1.6 0.00 1.75 0.00 96 1015.2
20260508080602 7 32 0.0 1.6 0.00 1.75 0.00 95 1015.2
20260508075602 7 275 0.0 1.6 0.00 1.83 0.00 95 1015.2
20260508075325 7 298 0.0 1.6 0.00 1.83 0.00 95 1015.2
20260508074830 7 0 0.0 1.6 0.00 1.83 0.00 95 1015.1
20260508074102 7 308 0.0 1.6 0.00 1.83 0.00 95 1015.1
20260508073101 8 272 1.6 1.6 0.00 1.85 0.00 94 1014.9
20260508072602 8 185 1.6 1.6 0.00 1.85 0.00 94 1015.0
20260508071326 8 0 1.6 1.6 0.00 1.93 0.00 93 1015.0
20260508070829 8 342 1.6 3.2 0.00 2.03 0.00 93 1015.0
20260508065602 8 327 1.6 3.2 0.00 2.13 0.00 93 1015.2
20260508065103 8 281 1.6 1.6 0.00 2.13 0.00 94 1015.2
20260508064828 8 289 1.6 1.6 0.00 2.13 0.00 94 1015.2
20260508063603 8 269 1.6 1.6 0.00 2.13 0.00 94 1015.0
20260508063102 8 274 0.0 1.6 0.00 2.16 0.00 94 1015.0
20260508062602 8 278 1.6 1.6 0.00 2.26 0.00 94 1014.9
20260508062102 8 266 1.6 3.2 0.00 2.31 0.00 94 1014.9
20260508061602 8 287 1.6 3.2 0.00 2.31 0.00 94 1015.0
20260508061102 8 272 0.0 1.6 0.00 2.31 0.00 94 1014.9
20260508060602 9 292 0.0 1.6 0.00 2.31 0.00 94 1015.0
20260508055602 9 82 1.6 3.2 0.00 2.31 0.00 94 1015.0
20260508054822 9 299 1.6 3.2 0.00 2.31 0.00 94 1015.0
20260508054327 9 148 0.0 3.2 0.00 2.34 0.00 94 1015.0
20260508053825 9 315 0.0 3.2 0.00 2.36 0.00 94 1015.1
20260508053102 9 295 1.6 4.8 0.00 2.41 0.00 94 1015.0
20260508052602 9 293 1.6 4.8 0.00 2.46 0.00 93 1015.1
20260508051602 10 0 1.6 3.2 0.00 2.62 0.00 93 1015.0
20260508051102 10 271 1.6 3.2 0.00 2.72 0.00 92 1015.0
20260508050602 10 342 1.6 3.2 0.00 2.79 0.00 92 1015.1
20260508045602 10 301 0.0 1.6 0.00 2.92 0.00 92 1015.1
20260508045101 10 253 0.0 1.6 0.00 2.95 0.00 92 1015.0
20260508044546 10 6 0.0 1.6 0.00 2.97 0.00 91 1014.9
20260508044031 10 227 0.0 1.6 0.00 3.05 0.00 91 1014.9
20260508043531 10 0 0.0 3.2 0.00 3.12 0.00 91 1014.9
20260508043032 10 0 1.6 3.2 0.00 3.17 0.00 90 1014.9
20260508042532 10 316 1.6 3.2 0.00 3.23 0.00 90 1015.1
20260508042032 10 300 1.6 3.2 0.00 3.33 0.00 90 1015.1
20260508041531 10 326 1.6 3.2 0.00 3.35 0.00 90 1014.9
20260508040530 10 342 1.6 3.2 0.00 3.43 0.00 90 1014.9
20260508040030 10 241 1.6 3.2 0.00 3.45 0.00 89 1014.9
20260508035530 10 280 1.6 3.2 0.00 3.45 3.45 89 1014.9
20260508035031 10 307 1.6 3.2 0.00 3.45 3.45 89 1014.9
20260508034531 10 339 1.6 1.6 0.00 3.45 3.45 89 1015.1
20260508034031 10 289 1.6 3.2 0.00 3.48 3.45 89 1014.9
20260508033529 10 315 1.6 3.2 0.00 3.48 3.45 89 1014.9
20260508033030 10 303 1.6 1.6 0.00 3.51 3.45 88 1015.0
20260508032749 10 6 0.0 1.6 0.00 3.56 3.45 88 1015.0
20260508032029 10 278 0.0 1.6 0.00 3.56 3.45 87 1014.9
20260508031529 10 10 0.0 1.6 0.00 3.56 3.45 88 1015.0
20260508031253 10 302 1.6 1.6 0.00 3.56 3.45 87 1014.9
20260508030529 10 352 1.6 1.6 0.00 3.56 3.45 86 1015.0
20260508030029 10 345 1.6 3.2 0.00 3.56 3.45 85 1015.0
20260508025529 10 285 1.6 3.2 0.00 3.56 3.45 85 1015.0
20260508025249 10 0 1.6 3.2 0.00 3.56 3.45 84 1014.9
20260508024530 10 333 1.6 3.2 0.00 3.56 3.45 84 1014.8
20260508024029 11 349 1.6 3.2 0.00 3.56 3.45 83 1014.8
20260508023529 11 310 1.6 1.6 0.00 3.56 3.45 83 1014.8
20260508023248 11 28 0.0 3.2 0.00 3.56 3.45 83 1014.8
20260508022529 11 3 0.0 3.2 0.00 3.56 3.45 83 1014.9
20260508022029 11 272 0.0 3.2 0.00 3.56 3.45 82 1014.8
20260508021529 11 335 0.0 3.2 0.00 3.56 3.45 82 1014.6
20260508021029 11 0 1.6 3.2 0.00 3.56 3.45 82 1014.6
20260508020529 11 338 1.6 3.2 0.00 3.56 3.45 83 1014.6
20260508020028 11 314 1.6 3.2 0.00 3.56 3.45 83 1014.6
20260508015529 11 336 1.6 3.2 0.00 3.56 3.45 84 1014.3
20260508014529 11 0 0.0 1.6 0.00 3.56 3.45 84 1014.1
20260508014245 11 295 0.0 3.2 0.00 3.56 3.45 84 1014.1
20260508013529 11 0 0.0 3.2 0.00 3.58 3.45 84 1014.1
20260508012529 11 345 0.0 1.6 0.00 3.61 3.45 85 1014.0
20260508012029 11 0 0.0 1.6 0.00 3.66 3.45 84 1013.9
20260508011529 11 255 0.0 1.6 0.00 3.71 3.45 85 1013.8
20260508011029 12 285 0.0 1.6 0.00 3.71 3.45 84 1013.7
20260508010751 12 259 0.0 1.6 0.00 3.71 3.45 83 1013.9
20260508010029 12 0 0.0 1.6 0.00 3.71 3.45 82 1014.0
20260508005747 12 312 0.0 1.6 0.00 3.73 3.45 82 1013.8
20260508005029 12 280 1.6 3.2 0.00 3.73 3.45 81 1013.6
20260508004528 12 291 1.6 3.2 0.00 3.73 3.45 82 1013.7
20260508004028 12 295 0.0 1.6 0.00 3.73 3.45 85 1013.7
20260508003528 12 326 0.0 3.2 0.00 3.73 3.45 85 1013.6
20260508003028 12 14 1.6 3.2 0.00 3.76 3.45 84 1013.7